Terminal Aerodrome Forecast
Issued by NWS Omaha/Valley, NE

Home | Current Version | Previous Version | Graphics & Text | Print | Product List | Glossary On
Versions: 1 2 3 4 5 6 7 8 9 10 11 12 13 14 15 16 17 18 19 20 21 22 23 24 25 26 27 28 29 30 31 32 33 34 35 36 37 38 39 40 41 42 43 44 45 46 47 48 49 50
000
FTUS43 KOAX 221138 AAC
TAFOFK
TAF AMD
KOFK 221138Z 2212/2312 33009KT 3SM BR OVC003
      TEMPO 2212/2214 2SM BR
     FM221400 33011KT 5SM BR OVC005
     FM221700 33012KT P6SM BKN010
     FM221800 33013KT P6SM SCT100
     FM222300 32009KT P6SM FEW250
     FM231100 VRB03KT 4SM BR SCT040=

USA.gov is the U.S. government's official web portal to all federal, state and local government web resources and services.